User: anonymous   Login
Location: Izdebno
(52.6670°N, 16.2170°E)
Time: 21:36:14
(UTC+02:00)
Language:

Envisat - Orbit

View from above orbital plane
View from above orbital plane
View from above satellite
View from above satellite

Ground track
Ground track

The orbit is defined by the following mean orbital elements,

1 27386U          26108.61395368 +.00000000 +00000-0 +31879-4 0 00009
2 27386  98.3790  61.2773 0001152  85.1240  88.3750 14.39050090    01
Epoch (UTC): 18 April 2026 14:44:05
Eccentricity: 0.0001152
inclination: 98.3790°
perigee height: 761 km
apogee height: 762 km
right ascension of ascending node: 61.2773°
argument of perigee: 85.1240°
revolutions per day: 14.39050090
mean anomaly at epoch: 88.3750°

The dashed part of the orbit path shows where the satellite is in the earth's shadow,  

DLR